This is the latest recevied weather packets stored in our database for station/object KF4CQ. If no packets are shown the sender has not sent any weather packets the latest 10 day(s).
| Time | Temp. | Humidity | Pressure | Rain* | Wind** | Luminosity | Snow |
|---|---|---|---|---|---|---|---|
| 1778090001 | 32.78° C | 49% | 1017.5 hPa | 0 mm | - | 731 W/m² | - |
| 1778089698 | 32.78° C | 49% | 1017.6 hPa | 0 mm | - | 815 W/m² | - |
| 1778089395 | 32.78° C | 50% | 1017.5 hPa | 0 mm | - | 710 W/m² | - |
| 1778089093 | 32.78° C | 49% | 1017.6 hPa | 0 mm | - | 782 W/m² | - |
| 1778088790 | 32.22° C | 51% | 1017.7 hPa | 0 mm | - | 823 W/m² | - |
| 1778088487 | 32.78° C | 50% | 1017.8 hPa | 0 mm | - | 824 W/m² | - |
| 1778088183 | 32.78° C | 49% | 1017.7 hPa | 0 mm | - | 776 W/m² | - |
| 1778087881 | 32.78° C | 50% | 1017.8 hPa | 0 mm | - | 815 W/m² | - |
| 1778087577 | 32.22° C | 51% | 1017.7 hPa | 0 mm | - | 798 W/m² | - |
| 1778087275 | 32.78° C | 50% | 1017.9 hPa | 0 mm | - | 750 W/m² | - |
| 1778086972 | 32.22° C | 51% | 1017.9 hPa | 0 mm | - | 739 W/m² | - |
| 1778086670 | 31.67° C | 52% | 1017.9 hPa | 0 mm | - | 747 W/m² | - |
| 1778086367 | 32.22° C | 51% | 1018 hPa | 0 mm | - | 749 W/m² | - |
| 1778086064 | 32.22° C | 52% | 1018.1 hPa | 0 mm | - | 769 W/m² | - |
| 1778085761 | 31.67° C | 52% | 1018.2 hPa | 0 mm | - | 777 W/m² | - |
| 1778085458 | 31.67° C | 52% | 1018.4 hPa | 0 mm | - | 748 W/m² | - |
| 1778085152 | 31.67° C | 53% | 1018.2 hPa | 0 mm | - | 735 W/m² | - |
| 1778084849 | 31.67° C | 53% | 1018.1 hPa | 0 mm | - | 743 W/m² | - |
| 1778084547 | 31.67° C | 54% | 1018.3 hPa | 0 mm | - | 706 W/m² | - |
| 1778084244 | 31.11° C | 53% | 1018.5 hPa | 0 mm | - | 687 W/m² | - |
| 1778083941 | 31.67° C | 54% | 1018.2 hPa | 0 mm | - | 660 W/m² | - |
| 1778083639 | 31.67° C | 53% | 1018.6 hPa | 0 mm | - | 724 W/m² | - |
| 1778083335 | 31.11° C | 55% | 1018.7 hPa | 0 mm | - | 665 W/m² | - |
| 1778083033 | 31.11° C | 54% | 1018.7 hPa | 0 mm | - | 601 W/m² | - |
| 1778082730 | 30.56° C | 55% | 1018.6 hPa | 0 mm | - | 638 W/m² | - |
* Rain latest hour (hover to see other rain measurements)
** Current wind speed in m/s (hover to see current wind gust speed)